This demonstration page uses our WeatherBlox Daily Observations layout. Learn more.

Left ArrowRight Arrow

30.21309, -93.2044

Hourly Observations for August 13, 2022

Temp ( °F °C ) Dew Point ( °F °C ) Humidity (%) Winds ( mph kmh ) Pressure ( in mb ) Visibility ( mi km ) Precip ( " mm )
12:15 am 00:15 Clear 77 25 75 23.9 94 94 ENE 7 11 29.97 1015 10 16 0.00 0.00
12:35 am 00:35 Clear 77 24.8 74 23.6 93 93 ENE 3 6 29.96 1015 10 16 0.00 0.00
12:55 am 00:55 Clear 76 24.7 74 23.6 94 94 ENE 6 9 29.96 1015 10 16 0.00 0.00
1:15 am 01:15 Clear 76 24.6 74 23.5 94 94 E 3 6 29.96 1015 10 16 0.00 0.00
1:35 am 01:35 Clear 76 24.5 74 23.4 94 94 E 3 6 29.95 1014 10 16 0.00 0.00
1:55 am 01:55 Clear 76 24.2 74 23.2 94 94 E 5 7 29.95 1014 7 11 0.00 0.00
2:15 am 02:15 Clear 76 24.4 74 23.3 94 94 ENE 5 7 29.95 1014 10 16 0.00 0.00
2:35 am 02:35 Partly Cloudy 76 24.3 74 23.2 94 94 NE 6 9 29.95 1014 10 16 0.00 0.00
2:55 am 02:55 Mostly Cloudy with Mist and Fog 76 24.2 74 23.2 94 94 NE 5 7 29.95 1014 7 11 0.00 0.00
3:15 am 03:15 Cloudy with Mist and Fog 76 24.2 74 23.2 94 94 ENE 6 9 29.95 1014 7 11 0.00 0.00
3:35 am 03:35 Cloudy with Mist and Fog 75 24.1 74 23.1 94 94 ENE 6 9 29.95 1014 7 11 0.00 0.00
3:55 am 03:55 Cloudy 76 24.2 74 23.2 94 94 E 6 9 29.96 1015 7 11 0.00 0.00
4:15 am 04:15 Cloudy with Mist and Fog 76 24.2 74 23.2 94 94 E 7 11 29.97 1015 7 11 0.00 0.00
4:35 am 04:35 Cloudy with Mist and Fog 75 24.1 74 23.1 94 94 ENE 6 9 29.97 1015 7 11 0.00 0.00
4:55 am 04:55 Cloudy 76 24.2 74 23.2 94 94 E 7 11 29.97 1015 7 11 0.00 0.00
5:15 am 05:15 Cloudy with Mist and Fog 75 24.1 74 23.1 94 94 E 5 7 29.96 1015 5 8 0.00 0.00
5:35 am 05:35 Cloudy with Mist and Fog 75 24.1 74 23.2 95 95 NE 3 6 29.96 1015 5 8 0.00 0.00
6:00 am 06:00 Cloudy with Mist and Fog 75 24 73 23 94 94 ENE 5 7 29.97 1015 4 6 0.00 0.00
6:45 am 06:45 Cloudy with Mist and Fog 75 24 73 23 94 94 ENE 7 11 29.98 1015 2 3 0.00 0.00
7:45 am 07:45 Cloudy with Mist and Fog 75 24 73 23 94 94 ENE 6 9 29.99 1016 4 6 0.00 0.00
8:47 am 08:47 Cloudy with Mist and Fog 77 25 73 23 89 89 NE 8 13 30.00 1016 5 8 0.00 0.00
9:45 am 09:45 Cloudy with Mist and Fog 79 26 75 24 89 89 ENE 8 13 30.01 1016 7 11 0.00 0.00
10:45 am 10:45 Mostly Cloudy 81 27 75 24 84 84 E 8 13 30.02 1017 10 16 0.00 0.00
11:49 am 11:49 Mostly Cloudy 82 28 75 24 79 79 E 8 13 30.01 1016 10 16 0.00 0.00
12:48 pm 12:48 Mostly Cloudy 84 29 75 24 74 74 S 9 15 30.00 1016 10 16 0.00 0.00
1:47 pm 13:47 Mostly Cloudy with Thunderstorms 88 31 73 23 63 63 ESE 14 22 29.99 1016 10 16 0.00 0.00
2:47 pm 14:47 Mostly Cloudy 79 26 73 23 84 84 E 8 13 30.00 1016 7 11 0.00 0.00
3:47 pm 15:47 Mostly Cloudy 84 29 75 24 74 74 ESE 13 20 29.98 1015 10 16 0.00 0.00
4:47 pm 16:47 Mostly Cloudy 82 28 75 24 79 79 ESE 13 20 29.98 1015 10 16 0.00 0.00
5:45 pm 17:45 Mostly Cloudy 84 29 75 24 74 74 ESE 13 20 29.96 1014 10 16 0.00 0.00
6:50 pm 18:50 Mostly Cloudy 82 28 73 23 74 74 SSE 15 24 29.96 1014 10 16 0.00 0.00
7:50 pm 19:50 Partly Cloudy 81 27 73 23 79 79 SSE 12 19 29.97 1015 10 16 0.00 0.00
8:50 pm 20:50 Mostly Clear 79 26 73 23 84 84 SSE 6 9 29.96 1014 10 16 0.00 0.00
9:55 pm 21:55 Mostly Clear 79 26 73 23 84 84 SSE 6 9 29.96 1014 10 16 0.00 0.00
10:15 pm 22:15 Clear 77 24.9 74 23.3 91 91 E 7 11 29.97 1015 10 16 0.00 0.00
10:35 pm 22:35 Clear 76 24.7 74 23.3 92 92 E 6 9 29.97 1015 10 16 0.00 0.00
10:55 pm 22:55 Clear 77 24.8 74 23.4 92 92 E 5 7 29.97 1015 10 16 0.00 0.00
11:15 pm 23:15 Clear 77 24.8 74 23.3 91 91 E 6 9 29.97 1015 10 16 0.00 0.00
11:35 pm 23:35 Clear 76 24.6 74 23.2 92 92 E 6 9 29.97 1015 10 16 0.00 0.00
11:55 pm 23:55 Clear 76 24.5 74 23.1 92 92 E 6 9 29.97 1015 10 16 0.00 0.00

Powered by AerisWeather